Hourly Data Report for July 13, 2017

TORONTO CITY
ONTARIO

43°40'00.000" N
79°24'00.000" W
112.50 m
6158355
71508
XTO

Download Data

Hourly Data (July 2017)
Hourly Data Report for July 13, 2017
TIME
LST
Temp Definition
°C
Dew Point Definition
°C
Rel Hum Definition
%
Precip. Amount Definition
mm

Wind Dir Definition
10's deg

Wind Spd Definition
km/h
Visibility Definition
km
Stn Press Definition
kPa
Hmdx Definition


Wind Chill Definition


Weather Definition


00:00 21.5 19.0 85 0.0 LegendMM LegendMM   100.00 28   LegendNANA
01:00 19.6 16.9 85 0.0 LegendMM LegendMM   100.04     LegendNANA
02:00 19.3 16.9 86 0.0 LegendMM LegendMM   100.05     LegendNANA
03:00 18.6 16.1 85 0.0 LegendMM LegendMM   100.05     LegendNANA
04:00 18.2 15.4 84 0.0 LegendMM LegendMM   100.08     LegendNANA
05:00 17.6 14.7 83 0.0 LegendMM LegendMM   100.14     LegendNANA
06:00 17.3 14.2 82 0.0 LegendMM LegendMM   100.19     LegendNANA
07:00 16.7 12.6 77 0.0 LegendMM LegendMM   100.22     LegendNANA
08:00 16.3 12.7 80 0.0 LegendMM LegendMM   100.19     LegendNANA
09:00 16.5 13.0 79 0.0 LegendMM LegendMM   100.28     LegendNANA
10:00 16.5 12.5 77 0.0 LegendMM LegendMM   100.27     LegendNANA
11:00 16.3 12.8 80 0.0 LegendMM LegendMM   100.34     LegendNANA
12:00 16.3 13.4 83 0.0 LegendMM LegendMM   100.31     LegendNANA
13:00 16.6 13.9 84 0.0 LegendMM LegendMM   100.28     LegendNANA
14:00 16.4 13.6 84 0.0 LegendMM LegendMM   100.33     LegendNANA
15:00 16.9 14.0 83 0.0 LegendMM LegendMM   100.30     LegendNANA
16:00 17.0 13.8 81 0.0 LegendMM LegendMM   100.26     LegendNANA
17:00 17.3 13.9 80 0.0 LegendMM LegendMM   100.23     LegendNANA
18:00 17.3 14.1 82 0.0 LegendMM LegendMM   100.24     LegendNANA
19:00 17.2 14.4 84 0.0 LegendMM LegendMM   100.21     LegendNANA
20:00 17.6 14.7 83 0.0 LegendMM LegendMM   100.19     LegendNANA
21:00 18.0 15.1 83 0.0 LegendMM LegendMM   100.23     LegendNANA
22:00 18.2 15.3 84 0.0 LegendMM LegendMM   100.20     LegendNANA
23:00 18.6 15.3 81 0.0 LegendMM LegendMM   100.19     LegendNANA

Notes on Data Quality.

Legend

  • E = Estimated
  • M = Missing
  • NA = Not Available*
  • [empty] = Indicates an unobserved value
Date modified: